Time,TemperatureF,DewpointF,PressureIn,WindDirection,WindDirectionDegrees,WindSpeedMPH,WindSpeedGustMPH,Humidity,HourlyPrecipIn,Conditions,Clouds,dailyrainin,SolarRadiationWatts/m^2,SoftwareType,DateUTC
2013-07-06 00:01:00,59.0,37.0,-100.00,NNW,338,11.0,19.0,44,0.00,,,0.00,0.000000,,2013-07-06 06:01:00,
2013-07-06 00:34:00,57.0,35.0,-100.00,West,281,6.0,13.0,44,0.00,,,0.00,0.000000,,2013-07-06 06:34:00,
2013-07-06 00:43:00,57.0,35.0,-100.00,West,281,6.0,13.0,44,0.00,,,0.00,0.000000,,2013-07-06 06:43:00,
2013-07-06 00:53:00,57.0,35.0,-100.00,West,281,6.0,13.0,44,0.00,,,0.00,0.000000,,2013-07-06 06:53:00,
2013-07-06 01:01:00,57.0,35.0,-100.00,West,281,6.0,13.0,44,0.00,,,0.00,0.000000,,2013-07-06 07:01:00,
2013-07-06 01:33:00,56.0,36.0,-100.00,SW,228,4.0,9.0,46,0.00,,,0.00,0.000000,,2013-07-06 07:33:00,
2013-07-06 01:44:00,56.0,36.0,-100.00,SW,228,4.0,9.0,46,0.00,,,0.00,0.000000,,2013-07-06 07:44:00,
2013-07-06 01:52:00,56.0,36.0,-100.00,SW,228,4.0,9.0,46,0.00,,,0.00,0.000000,,2013-07-06 07:52:00,
2013-07-06 02:02:00,56.0,36.0,-100.00,SW,228,4.0,9.0,46,0.00,,,0.00,0.000000,,2013-07-06 08:02:00,
2013-07-06 02:34:00,54.0,37.0,-100.00,West,280,4.0,6.0,52,0.00,,,0.00,0.000000,,2013-07-06 08:34:00,
2013-07-06 02:43:00,54.0,37.0,-100.00,West,280,4.0,6.0,52,0.00,,,0.00,0.000000,,2013-07-06 08:43:00,
2013-07-06 02:54:00,54.0,37.0,-100.00,West,280,4.0,6.0,52,0.00,,,0.00,0.000000,,2013-07-06 08:54:00,
2013-07-06 03:34:00,53.0,38.0,-100.00,SSW,196,3.0,5.0,57,-99.99,,,0.00,0.000000,,2013-07-06 09:34:00,
2013-07-06 03:43:00,53.0,38.0,-100.00,SSW,196,3.0,5.0,57,-99.99,,,0.00,0.000000,,2013-07-06 09:43:00,
2013-07-06 03:52:00,53.0,38.0,-100.00,SSW,196,3.0,5.0,57,-99.99,,,0.00,0.000000,,2013-07-06 09:52:00,
2013-07-06 04:02:00,53.0,38.0,-100.00,SSW,196,3.0,5.0,57,-99.99,,,0.00,0.000000,,2013-07-06 10:02:00,
2013-07-06 04:33:00,51.0,38.0,-100.00,South,174,2.0,4.0,60,0.00,,,0.00,0.000000,,2013-07-06 10:33:00,
2013-07-06 04:43:00,51.0,38.0,-100.00,South,174,2.0,4.0,60,0.00,,,0.00,0.000000,,2013-07-06 10:43:00,
2013-07-06 04:53:00,51.0,38.0,-100.00,South,174,2.0,4.0,60,0.00,,,0.00,0.000000,,2013-07-06 10:53:00,
2013-07-06 05:01:00,51.0,38.0,-100.00,South,174,2.0,4.0,60,0.00,,,0.00,0.000000,,2013-07-06 11:01:00,
2013-07-06 05:33:00,50.0,38.0,-100.00,ESE,121,2.0,6.0,62,0.00,,,0.00,0.000000,,2013-07-06 11:33:00,
2013-07-06 05:43:00,50.0,38.0,-100.00,ESE,121,2.0,6.0,62,0.00,,,0.00,0.000000,,2013-07-06 11:43:00,
2013-07-06 05:53:00,50.0,38.0,-100.00,ESE,121,2.0,6.0,62,0.00,,,0.00,0.000000,,2013-07-06 11:53:00,
2013-07-06 06:01:00,50.0,38.0,-100.00,ESE,121,2.0,6.0,62,0.00,,,0.00,0.000000,,2013-07-06 12:01:00,
2013-07-06 06:33:00,48.0,37.0,-100.00,North,7,5.0,7.0,65,0.00,,,0.00,3.000000,,2013-07-06 12:33:00,
2013-07-06 06:43:00,48.0,37.0,-100.00,North,7,5.0,7.0,65,0.00,,,0.00,3.000000,,2013-07-06 12:43:00,
2013-07-06 06:52:00,48.0,37.0,-100.00,North,7,5.0,7.0,65,0.00,,,0.00,3.000000,,2013-07-06 12:52:00,
2013-07-06 07:01:00,48.0,37.0,-100.00,North,7,5.0,7.0,65,0.00,,,0.00,3.000000,,2013-07-06 13:01:00,
2013-07-06 07:43:00,52.0,38.0,-100.00,North,7,4.0,9.0,58,0.00,,,-99.99,92.000000,,2013-07-06 13:43:00,
2013-07-06 07:52:00,52.0,38.0,-100.00,North,7,4.0,9.0,58,0.00,,,-99.99,92.000000,,2013-07-06 13:52:00,
2013-07-06 08:02:00,52.0,38.0,-100.00,North,7,4.0,9.0,58,0.00,,,-99.99,92.000000,,2013-07-06 14:02:00,
2013-07-06 08:42:00,56.0,41.0,-100.00,SSW,199,2.0,5.0,58,0.00,,,0.00,284.000000,,2013-07-06 14:42:00,
2013-07-06 08:53:00,56.0,41.0,-100.00,SSW,199,2.0,5.0,58,0.00,,,0.00,284.000000,,2013-07-06 14:53:00,
2013-07-06 09:02:00,56.0,41.0,-100.00,SSW,199,2.0,5.0,58,0.00,,,0.00,284.000000,,2013-07-06 15:02:00,
2013-07-06 09:33:00,57.0,39.0,-100.00,WSW,253,4.0,6.0,51,0.00,,,0.00,488.000000,,2013-07-06 15:33:00,
2013-07-06 09:43:00,57.0,39.0,-100.00,WSW,253,4.0,6.0,51,0.00,,,0.00,488.000000,,2013-07-06 15:43:00,
2013-07-06 09:53:00,57.0,39.0,-100.00,WSW,253,4.0,6.0,51,0.00,,,0.00,488.000000,,2013-07-06 15:53:00,
2013-07-06 10:03:00,57.0,39.0,-100.00,WSW,253,4.0,6.0,51,0.00,,,0.00,488.000000,,2013-07-06 16:03:00,
2013-07-06 10:58:00,61.0,42.0,-100.00,SW,231,3.0,6.0,49,0.00,,,0.00,321.000000,,2013-07-06 16:58:00,
2013-07-06 11:44:00,65.0,40.0,-100.00,WNW,285,5.0,9.0,40,0.00,,,0.00,744.000000,,2013-07-06 17:44:00,
2013-07-06 11:57:00,65.0,40.0,-100.00,WNW,285,5.0,9.0,40,0.00,,,0.00,744.000000,,2013-07-06 17:57:00,
2013-07-06 12:49:00,66.0,38.0,-100.00,SSW,204,9.0,15.0,35,0.00,,,0.00,986.000000,,2013-07-06 18:49:00,
2013-07-06 13:04:00,66.0,38.0,-100.00,SSW,204,9.0,15.0,35,0.00,,,0.00,986.000000,,2013-07-06 19:04:00,
2013-07-06 14:04:00,69.0,39.0,-100.00,South,186,8.0,16.0,33,0.00,,,0.00,1129.000000,,2013-07-06 20:04:00,
2013-07-06 14:50:00,72.0,35.0,-100.00,SW,232,7.0,16.0,26,0.00,,,0.00,1176.000000,,2013-07-06 20:50:00,
2013-07-06 14:58:00,72.0,35.0,-100.00,SW,232,7.0,16.0,26,0.00,,,0.00,1176.000000,,2013-07-06 20:58:00,
2013-07-06 15:04:00,72.0,35.0,-100.00,SW,232,7.0,16.0,26,0.00,,,0.00,1176.000000,,2013-07-06 21:04:00,
2013-07-06 15:59:00,74.0,39.0,-100.00,West,271,9.0,18.0,28,0.00,,,0.00,973.000000,,2013-07-06 21:59:00,
2013-07-06 16:04:00,74.0,39.0,-100.00,West,271,9.0,18.0,28,0.00,,,0.00,973.000000,,2013-07-06 22:04:00,
2013-07-06 17:04:00,75.0,35.0,-100.00,West,266,10.0,17.0,23,0.00,,,0.00,858.000000,,2013-07-06 23:04:00,
2013-07-06 18:05:00,76.0,36.0,-100.00,WSW,246,5.0,19.0,23,0.00,,,0.00,835.000000,,2013-07-07 00:05:00,
2013-07-06 18:49:00,74.0,33.0,-100.00,NW,319,10.0,18.0,22,0.00,,,0.00,708.000000,,2013-07-07 00:49:00,
2013-07-06 19:04:00,74.0,33.0,-100.00,NW,319,10.0,18.0,22,0.00,,,0.00,708.000000,,2013-07-07 01:04:00,
2013-07-06 20:03:00,73.0,34.0,-100.00,NW,320,10.0,16.0,24,0.00,,,0.00,495.000000,,2013-07-07 02:03:00,
2013-07-06 20:51:00,71.0,33.0,-100.00,NW,326,9.0,17.0,25,0.00,,,-99.99,300.000000,,2013-07-07 02:51:00,
2013-07-06 21:02:00,71.0,33.0,-100.00,NW,326,9.0,17.0,25,0.00,,,-99.99,300.000000,,2013-07-07 03:02:00,
2013-07-06 21:41:00,67.0,32.0,-100.00,NNW,332,9.0,15.0,27,0.00,,,0.00,95.000000,,2013-07-07 03:41:00,
2013-07-06 22:00:00,67.0,32.0,-100.00,NNW,332,9.0,15.0,27,0.00,,,0.00,95.000000,,2013-07-07 04:00:00,
2013-07-06 22:01:00,67.0,32.0,-100.00,NNW,332,9.0,15.0,27,0.00,,,0.00,95.000000,,2013-07-07 04:01:00,
2013-07-06 22:31:00,65.0,32.0,-100.00,North,1,8.0,14.0,29,0.00,,,0.00,5.000000,,2013-07-07 04:31:00,
2013-07-06 22:41:00,65.0,32.0,-100.00,North,1,8.0,14.0,29,0.00,,,0.00,5.000000,,2013-07-07 04:41:00,
2013-07-06 22:51:00,65.0,32.0,-100.00,North,1,8.0,14.0,29,0.00,,,0.00,5.000000,,2013-07-07 04:51:00,
2013-07-06 23:01:00,65.0,32.0,-100.00,North,1,8.0,14.0,29,0.00,,,0.00,5.000000,,2013-07-07 05:01:00,
2013-07-06 23:31:00,62.0,32.0,-100.00,North,352,5.0,13.0,32,0.00,,,0.00,0.000000,,2013-07-07 05:31:00,
2013-07-06 23:41:00,62.0,32.0,-100.00,North,352,5.0,13.0,32,0.00,,,0.00,0.000000,,2013-07-07 05:41:00,
2013-07-06 23:51:00,62.0,32.0,-100.00,North,352,5.0,13.0,32,0.00,,,0.00,0.000000,,2013-07-07 05:51:00,